Fort Dodge, IA

6:35 PM CST on December 15, 2019 (GMT -0600)
Fort Dodge Regional

Weather History for KFOD - November, 2019

Change the Weather History Date:

Monday, November 18, 2019

  Actual Average Record
Temperature  
Mean Temperature 40 °F -  
Max Temperature 46 °F 45 °F 73 °F (1999)
Min Temperature 35 °F 26 °F 1 °F (2018)
Degree Days  
Heating Degree Days 24    
Moisture  
Dew Point 40 °F    
Average Humidity 90    
Maximum Humidity 100    
Minimum Humidity 71    
Precipitation  
Precipitation 0.14 in - - ()
Sea Level Pressure  
Sea Level Pressure 29.74 in    
Wind  
Wind Speed 7 mph ()    
Max Wind Speed 10 mph    
Max Gust Speed -    
Visibility 7.9 miles    
Events Rain    
Averages and records for this station are not official NWS values.
T = Trace of Precipitation, MM = Missing Value Source: Averaged Metar Reports

Daily Weather History Graph

Daily Weather History Graph

Search for Another Location

Airport or City:

Astronomy

Nov. 18, 2019 Rise Set
Actual Time 7:11 AM CST 4:51 PM CST
Civil Twilight 6:40 AM CST 5:22 PM CST
Nautical Twilight 6:06 AM CST 5:56 PM CST
Astronomical Twilight 5:33 AM CST 6:30 PM CST
Moon 10:37 PM CST (11/18) 12:43 PM CST (11/18)
Length of Visible Light 10h 41m
Length of Day
9h 40m
Waning Gibbous, 63% of the Moon is Illuminated
Nov 18
Waning Gibbous
Nov 19
Last Quarter
Nov 26
New
Dec 4
First Quarter
Dec 11
Full

Hourly Weather History & Observations

Time (CST) Temp. Windchill Dew Point Humidity Pressure Visibility Wind Dir Wind Speed Gust Speed Precip Events Conditions
8:56 AM 35.1 °F 29.3 °F 33.1 °F 92% 29.86 in 10.0 mi SE 6.9 mph - N/A   Mostly Cloudy
9:56 AM 37.9 °F 32.1 °F 34.0 °F 86% 29.85 in 10.0 mi SSE 8.1 mph - N/A   Overcast
10:56 AM 41.0 °F 34.7 °F 36.0 °F 82% 29.83 in 10.0 mi South 10.4 mph - N/A   Overcast
11:56 AM 42.1 °F 36.1 °F 36.0 °F 79% 29.80 in 10.0 mi SSE 10.4 mph - N/A   Overcast
12:56 PM 45.0 °F 41.2 °F 37.9 °F 76% 29.76 in 10.0 mi South 6.9 mph - N/A   Partly Cloudy
1:56 PM 46.9 °F - 37.9 °F 71% 29.75 in 10.0 mi SSW 10.4 mph - N/A   Overcast
2:56 PM 46.0 °F 41.4 °F 39.0 °F 76% 29.74 in 10.0 mi South 9.2 mph - N/A   Overcast
3:56 PM 45.0 °F 40.6 °F 39.0 °F 80% 29.75 in 10.0 mi South 8.1 mph - 0.00 in Rain Light Rain
4:56 PM 43.0 °F 40.3 °F 41.0 °F 93% 29.76 in 2.5 mi South 4.6 mph - 0.02 in Rain Rain
5:04 PM 42.8 °F 40.1 °F 41.0 °F 93% 29.65 in 4.0 mi Variable 4.6 mph - 0.02 in Rain Rain
5:41 PM 42.8 °F 38.6 °F 42.8 °F 100% 29.64 in 6.0 mi South 6.9 mph - 0.10 in Rain Light Rain
5:56 PM 43.0 °F 39.5 °F 42.1 °F 97% 29.75 in 8.0 mi South 5.8 mph - 0.11 in Rain Light Rain
6:39 PM 42.8 °F 38.6 °F 42.8 °F 100% 29.65 in 5.0 mi South 6.9 mph - 0.01 in Rain Light Rain
6:50 PM 42.8 °F 38.0 °F 42.8 °F 100% 29.65 in 7.0 mi SSW 8.1 mph - 0.01 in Rain Light Rain
6:56 PM 43.0 °F 39.5 °F 42.1 °F 97% 29.76 in 7.0 mi SSW 5.8 mph - 0.01 in Rain Light Rain
7:14 PM 42.8 °F 39.3 °F 42.8 °F 100% 29.65 in 5.0 mi SSW 5.8 mph - 0.00 in   Overcast
7:44 PM 42.8 °F 39.3 °F 42.8 °F 100% 29.66 in 4.0 mi SW 5.8 mph - 0.00 in Rain Light Rain
8:17 PM 44.6 °F 41.4 °F 42.8 °F 93% 29.66 in 3.0 mi West 5.8 mph - 0.00 in Rain Light Rain
8:56 PM 45.0 °F 41.2 °F 43.0 °F 93% 29.77 in 10.0 mi NW 6.9 mph - 0.00 in   Overcast
9:56 PM 44.1 °F 39.5 °F 42.1 °F 93% 29.78 in 10.0 mi NNW 8.1 mph - N/A   Overcast
10:56 PM 43.0 °F 37.7 °F 41.0 °F 93% 29.79 in 10.0 mi North 9.2 mph - N/A   Overcast
11:30 PM 42.8 °F 39.3 °F 41.0 °F 93% 29.71 in 10.0 mi NNW 5.8 mph - 0.00 in Rain Light Rain
11:56 PM 43.0 °F 38.2 °F 41.0 °F 93% 29.81 in 10.0 mi NW 8.1 mph - 0.00 in   Overcast